Showing default

OPS 9381 (GGTS), 2207

Orbit data source: Space-Track

OPS 9381 (GGTS), 2207 is a payload satellite owned by USAF SSD (US) in GEO that was launched on Thu, 16 Jun 1966 UTC via a TITAN IIIC launch vehicle from the Air Force Eastern Test Range (AFETR). Payload-class satellites include a variety of spacecraft equipped with specific instruments for various scientific and technological missions. These include communications satellites like Starlink; space stations such as the ISS; scientific satellites like the Hubble; Earth observation satellites from companies like Planet Labs, Umbra, and HawkEye 360; GPS; miniature CubeSats for education and research; and military/defense satellites.

Not visible in the next 10 days
Identifier
2207, 1966-053A
Orbit
GEO
Country
Flag of USUS
Related business
Manufacturer
GE/MSVD
Mission
Non-operational spacecraft
Bus & Motor
GGTS, Unknown motor
Mass
47 kg wet, 47 kg dry
Launch date (UTC)
1966-06-16 (60 years ago)
Launch vehicle
TITAN IIIC
Launch site
Air Force Eastern Test Range (AFETR)
Object type
Payload
Rocket body
Debris
Shape & HBR
POLY, 16.0 m
Radar Cross Section
Medium (>0.1 m² and <1 m²)

Expand to show TLE details & history
Last TLE update: 1 day ago

TLE from 1 day ago
0 OPS 9381 (GGTS)
1 02207U 66053A   26253.08779264 -.00000089  00000-0  00000-0 0  9990
2 02207   8.8005  42.5994 0027914 235.9412 117.6196  1.08010419236877
Epoch: 2026-09-10T02:06Z
TLE epoch observation values (Epoch: 2026-09-10T02:06:25.284Z)
Latitude
-0.95745°
Longitude
15.77166°
Altitude
33,798.966 km
Speed
3.148 km/s
True Right ascension
02h 26m 01s
True Declination
0° 57' 23"
Sunlit
Object was in daylight at epoch
Visualization orbit readout
Latitude
Unknown
Longitude
Unknown
Altitude
Unknown
Speed
Unknown
Apparent Right ascension
Unknown
Apparent Declination
Unknown
Sunlit
N/A
Visualization observer readout
Local Sidereal Time
01:16:48
Azimuth
Unknown
Elevation
Unknown
Doppler factor
Unknown
Orbital elements
Apogee altitude
33,860.853 km
Perigee altitude
33,636.832 km
Semi-major axis
40,126.979 km
Eccentricity
0.00279
Inclination
8.8005°
RAAN
42.5994°
Arg. of periapsis
235.9412°
True anomaly
117.90256°
Mean anomaly
117.6196°
Eccentric anomaly
117.76113°
Mean motion
0.27002 °/min
Orbital period
1,333.26 mins
BSTAR
0
Loading maneuver chart data...
Computing Atmospheric mass density...
Loading historical data...
Loading historical data...
Loading historical data...
Loading historical data...
Loading historical data...
Loading historical data...
Loading historical data...

Documentation

Showing up to 5 results
|